When you browse on this site, cookies collect data to enhance your experience and personalize the content and advertising you see.
Visit our Privacy Policy to learn more. By continuing to use the site, you agree to this use of cookies and data.

Météo par heure à Tykhonivs'ke

Ce jour, 11 Août, Mardi

Heure Température Précipitation Vent Pression Humidité
00:00 +19°C° 0 mm 1 m/s 745 mmHg 85%
01:00 +18°C° 0 mm 1 m/s 745 mmHg 87%
02:00 +18°C° 0 mm 1 m/s 745 mmHg 88%
03:00 +18°C° 0 mm 1 m/s 744 mmHg 89%
04:00 +18°C° 0 mm 1 m/s 744 mmHg 89%
05:00 +18°C° 0 mm 1 m/s 744 mmHg 90%
06:00 +19°C° 0 mm 1 m/s 744 mmHg 84%
07:00 +21°C° 0 mm 1 m/s 744 mmHg 79%
08:00 +23°C° 0 mm 2 m/s 744 mmHg 73%
09:00 +24°C° 0 mm 2 m/s 744 mmHg 68%
10:00 +25°C° 0 mm 2 m/s 744 mmHg 62%
11:00 +27°C° 0 mm 3 m/s 744 mmHg 57%
12:00 +27°C° 0.3 mm 3 m/s 744 mmHg 56%
13:00 +27°C° 0.3 mm 3 m/s 744 mmHg 54%
14:00 +28°C° 0.3 mm 3 m/s 744 mmHg 53%
15:00 +27°C° 0.9 mm 3 m/s 744 mmHg 60%
16:00 +25°C° 0.9 mm 3 m/s 744 mmHg 67%
17:00 +24°C° 0.9 mm 3 m/s 744 mmHg 74%
18:00 +22°C° 0.2 mm 3 m/s 744 mmHg 79%
19:00 +20°C° 0.2 mm 4 m/s 744 mmHg 85%
20:00 +18°C° 0.2 mm 4 m/s 744 mmHg 90%
21:00 +17°C° 0 mm 4 m/s 744 mmHg 89%
22:00 +15°C° 0 mm 4 m/s 744 mmHg 89%
23:00 +14°C° 0 mm 4 m/s 744 mmHg 88%

Demain, 12 Août, Mercredi

Heure Température Précipitation Vent Pression Humidité
00:00 +14°C° 0 mm 4 m/s 744 mmHg 90%
01:00 +13°C° 0 mm 3 m/s 744 mmHg 91%
02:00 +12°C° 0 mm 3 m/s 744 mmHg 93%
03:00 +12°C° 0 mm 3 m/s 745 mmHg 93%
04:00 +11°C° 0 mm 3 m/s 745 mmHg 93%
05:00 +11°C° 0 mm 3 m/s 745 mmHg 93%
06:00 +12°C° 0 mm 3 m/s 745 mmHg 88%
07:00 +13°C° 0 mm 4 m/s 745 mmHg 82%
08:00 +15°C° 0 mm 4 m/s 745 mmHg 76%
09:00 +17°C° 0 mm 4 m/s 746 mmHg 71%
10:00 +17°C° 0 mm 5 m/s 746 mmHg 66%
11:00 +19°C° 0 mm 5 m/s 746 mmHg 60%
12:00 +19°C° 0 mm 5 m/s 746 mmHg 60%
13:00 +19°C° 0 mm 5 m/s 746 mmHg 60%
14:00 +19°C° 0 mm 5 m/s 746 mmHg 60%
15:00 +19°C° 0 mm 5 m/s 746 mmHg 62%
16:00 +19°C° 0 mm 5 m/s 746 mmHg 65%
17:00 +19°C° 0 mm 4 m/s 746 mmHg 67%
18:00 +17°C° 0 mm 4 m/s 746 mmHg 75%
19:00 +15°C° 0 mm 4 m/s 746 mmHg 82%
20:00 +13°C° 0 mm 3 m/s 746 mmHg 89%
21:00 +13°C° 0 mm 3 m/s 746 mmHg 90%
22:00 +12°C° 0 mm 3 m/s 746 mmHg 92%
23:00 +12°C° 0 mm 3 m/s 746 mmHg 93%

Après-demain, 13 Août, Jeudi

Heure Température Précipitation Vent Pression Humidité
00:00 +11°C° 0 mm 3 m/s 746 mmHg 94%
01:00 +11°C° 0 mm 3 m/s 746 mmHg 94%
02:00 +10°C° 0 mm 3 m/s 746 mmHg 95%
03:00 +10°C° 0 mm 3 m/s 746 mmHg 95%
04:00 +10°C° 0 mm 3 m/s 746 mmHg 95%
05:00 +10°C° 0 mm 2 m/s 746 mmHg 95%
06:00 +12°C° 0 mm 3 m/s 746 mmHg 88%
07:00 +14°C° 0 mm 3 m/s 746 mmHg 81%
08:00 +16°C° 0 mm 3 m/s 746 mmHg 74%
09:00 +18°C° 0 mm 3 m/s 746 mmHg 69%
10:00 +19°C° 0 mm 3 m/s 746 mmHg 65%
11:00 +20°C° 0 mm 3 m/s 746 mmHg 61%
12:00 +20°C° 0.2 mm 4 m/s 746 mmHg 61%
13:00 +20°C° 0.2 mm 4 m/s 746 mmHg 61%
14:00 +20°C° 0.2 mm 4 m/s 746 mmHg 61%
15:00 +19°C° 0.1 mm 4 m/s 746 mmHg 62%
16:00 +19°C° 0.1 mm 4 m/s 746 mmHg 63%
17:00 +19°C° 0.1 mm 4 m/s 746 mmHg 65%
18:00 +17°C° 0 mm 4 m/s 746 mmHg 70%
19:00 +15°C° 0 mm 4 m/s 746 mmHg 74%
20:00 +13°C° 0 mm 4 m/s 746 mmHg 79%
21:00 +12°C° 0 mm 3 m/s 746 mmHg 83%
22:00 +12°C° 0 mm 3 m/s 746 mmHg 86%
23:00 +11°C° 0 mm 3 m/s 746 mmHg 89%

14 Août, Vendredi

Heure Température Précipitation Vent Pression Humidité
00:00 +10°C° 0 mm 3 m/s 746 mmHg 90%
01:00 +10°C° 0 mm 3 m/s 746 mmHg 90%
02:00 +9°C° 0 mm 3 m/s 746 mmHg 91%
03:00 +9°C° 0 mm 3 m/s 746 mmHg 91%
04:00 +9°C° 0 mm 3 m/s 746 mmHg 91%
05:00 +8°C° 0 mm 3 m/s 746 mmHg 91%
06:00 +10°C° 0 mm 3 m/s 747 mmHg 83%
07:00 +12°C° 0 mm 3 m/s 747 mmHg 75%
08:00 +14°C° 0 mm 3 m/s 747 mmHg 66%
09:00 +16°C° 0 mm 3 m/s 747 mmHg 61%
10:00 +17°C° 0 mm 3 m/s 747 mmHg 55%
11:00 +19°C° 0 mm 4 m/s 747 mmHg 50%
12:00 +19°C° 0 mm 3 m/s 747 mmHg 50%
13:00 +19°C° 0 mm 3 m/s 747 mmHg 50%
14:00 +19°C° 0 mm 3 m/s 747 mmHg 49%
15:00 +19°C° 0 mm 3 m/s 747 mmHg 52%
16:00 +19°C° 0 mm 3 m/s 747 mmHg 54%
17:00 +18°C° 0 mm 3 m/s 747 mmHg 57%
18:00 +17°C° 0 mm 2 m/s 747 mmHg 63%
19:00 +15°C° 0 mm 2 m/s 747 mmHg 69%
20:00 +13°C° 0 mm 2 m/s 747 mmHg 75%
21:00 +12°C° 0 mm 1 m/s 747 mmHg 77%
22:00 +12°C° 0 mm 1 m/s 747 mmHg 80%
23:00 +11°C° 0 mm 1 m/s 748 mmHg 82%

15 Août, Samedi

Heure Température Précipitation Vent Pression Humidité
00:00 +11°C° 0 mm 1 m/s 748 mmHg 84%
01:00 +11°C° 0 mm 1 m/s 748 mmHg 86%
02:00 +10°C° 0 mm 1 m/s 748 mmHg 88%
03:00 +10°C° 0 mm 1 m/s 748 mmHg 89%
04:00 +10°C° 0 mm 1 m/s 748 mmHg 90%
05:00 +10°C° 0 mm 1 m/s 747 mmHg 91%
06:00 +12°C° 0 mm 1 m/s 748 mmHg 84%
07:00 +14°C° 0 mm 1 m/s 748 mmHg 77%
08:00 +16°C° 0 mm 1 m/s 748 mmHg 70%
09:00 +18°C° 0 mm 1 m/s 748 mmHg 64%
10:00 +20°C° 0 mm 1 m/s 748 mmHg 58%
11:00 +20°C° 0 mm 2 m/s 748 mmHg 53%
12:00 +21°C° 0 mm 2 m/s 747 mmHg 51%
13:00 +21°C° 0 mm 2 m/s 747 mmHg 49%
14:00 +23°C° 0 mm 2 m/s 747 mmHg 47%
15:00 +23°C° 0 mm 2 m/s 747 mmHg 50%
16:00 +21°C° 0 mm 2 m/s 746 mmHg 53%
17:00 +21°C° 0 mm 2 m/s 746 mmHg 56%
18:00 +20°C° 0 mm 1 m/s 746 mmHg 61%
19:00 +19°C° 0 mm 1 m/s 746 mmHg 66%
20:00 +16°C° 0 mm 1 m/s 746 mmHg 71%
21:00 +15°C° 0 mm 1 m/s 745 mmHg 71%
22:00 +15°C° 0 mm 1 m/s 745 mmHg 72%
23:00 +15°C° 0 mm 2 m/s 745 mmHg 73%

16 Août, Dimanche

Heure Température Précipitation Vent Pression Humidité
00:00 +15°C° 0 mm 2 m/s 745 mmHg 72%
01:00 +15°C° 0 mm 2 m/s 745 mmHg 71%
02:00 +15°C° 0 mm 2 m/s 745 mmHg 70%
03:00 +15°C° 0 mm 2 m/s 745 mmHg 71%
04:00 +15°C° 0 mm 2 m/s 745 mmHg 72%
05:00 +15°C° 0 mm 2 m/s 745 mmHg 74%
06:00 +15°C° 0.4 mm 2 m/s 744 mmHg 80%
07:00 +14°C° 0.4 mm 2 m/s 744 mmHg 86%
08:00 +14°C° 0.4 mm 2 m/s 744 mmHg 92%
09:00 +15°C° 0.4 mm 2 m/s 744 mmHg 89%
10:00 +17°C° 0.4 mm 2 m/s 745 mmHg 86%
11:00 +18°C° 0.4 mm 2 m/s 745 mmHg 83%
12:00 +19°C° 0.8 mm 2 m/s 745 mmHg 80%
13:00 +20°C° 0.8 mm 2 m/s 745 mmHg 77%
14:00 +20°C° 0.8 mm 2 m/s 744 mmHg 74%
15:00 +21°C° 0.6 mm 2 m/s 744 mmHg 74%
16:00 +21°C° 0.6 mm 2 m/s 744 mmHg 73%
17:00 +21°C° 0.6 mm 2 m/s 744 mmHg 73%
18:00 +19°C° 0.9 mm 2 m/s 744 mmHg 79%
19:00 +18°C° 0.9 mm 2 m/s 744 mmHg 85%
20:00 +16°C° 0.9 mm 2 m/s 744 mmHg 91%
21:00 +15°C° 0 mm 2 m/s 745 mmHg 92%
22:00 +14°C° 0 mm 3 m/s 745 mmHg 93%
23:00 +13°C° 0 mm 3 m/s 745 mmHg 94%
Voir plus